Regional Weather Roundup
Issued by NWS Portland, ME

Current Version | Previous Version | Text Only | Print | Product List | Glossary Off
Versions: 1 2 3 4 5 6 7 8 9 10 11 12 13 14 15 16 17 18 19 20 21 22 23 24 25 26 27 28 29 30 31 32 33 34 35 36 37 38 39 40 41 42 43 44 45 46 47 48 49 50
574 ASUS41 KGYX 240505 RWRGYX WEATHER ROUNDUP FOR MAINE AND NEW HAMPSHIRE NATIONAL WEATHER SERVICE GRAY ME 1200 AM EST SAT FEB 24 2018 MEZ002-005-006-010-012-015-018-020-021-024-026-027-029-240600- MAINE CITY SKY/WX TMP DP RH WIND PRES REMARKS PORTLAND DRIZZLE 35 34 96 S10 30.03F FOG SANFORD CLOUDY 34 33 96 SW7 30.03F BAR HARBOR LGT RAIN 34 34 100 SW12 30.03F FOG WISCASSET CLOUDY 36 36 100 SW6 30.04F ROCKLAND CLOUDY 36 35 96 SW10 30.03F FRYEBURG CLOUDY 33 33 100 S8 29.98F LEWISTONAUBURN CLOUDY 33 32 96 S7 30.00F AUGUSTA CLOUDY 33 32 96 S7 30.00F WATERVILLE CLOUDY 33 32 96 S8 29.94F BANGOR CLOUDY 34 32 92 S13G18 29.99F GREENVILLE N/A 28 27 96 S9 29.87F MILLINOCKET CLOUDY 30 29 96 VRB3 29.95F HOULTON LGT SNOW 29 27 92 S10G20 29.90F FOG WCI 20 PRESQUE ISLE LGT SNOW 27 25 92 S14 29.87F FOG WCI 16 FRENCHVILLE CLOUDY 21 19 92 S10 29.80F WCI 10 CARIBOU CLOUDY 26 22 84 S9 29.85F FOG $$ NHZ002-005-008-009-011-012-014-240600- NEW HAMPSHIRE CITY SKY/WX TMP DP RH WIND PRES REMARKS PORTSMOUTH CLOUDY 35 35 98 S5 30.02F ROCHESTER CLOUDY 34 34 100 VRB3 30.02F FOG NASHUA CLOUDY 35 35 100 SE3 30.05F MANCHESTER CLOUDY 35 34 96 S7 30.03F CONCORD CLOUDY 34 32 92 S5 30.04F LACONIA CLOUDY 33 31 92 W5 30.02F PLYMOUTH CLOUDY 32 32 100 CALM 30.02F FOG BERLIN CLOUDY 33 32 96 CALM 29.94F WHITEFIELD CLOUDY 34 33 96 CALM 29.97F JAFFREY CLOUDY 34 34 100 SW9 30.02F KEENE CLOUDY 33 33 100 S3 30.06F LEBANON CLOUDY 35 33 92 CALM 30.02F MT WASHINGTON FOG 27 27 100 W68G75 N/A VSB 1/16WCI 4 $$ VTZ005-007-008-240600- VERMONT CITY SKY/WX TMP DP RH WIND PRES REMARKS ST JOHNSBURY N/A 34 34 100 MISG 29.97F MONTPELIER CLOUDY 34 33 96 E3 29.99F BURLINGTON CLOUDY 39 34 82 S18G25 29.99S $$ MAZ007-012-024-CTZ003-RIZ002-NYZ038-NYZ072-240600- SOUTHERN NEW ENGLAND AND NY CITY SKY/WX TMP DP RH WIND PRES REMARKS BOSTON CLOUDY 37 36 96 SW13 30.07F WORCESTER CLOUDY 34 33 96 SW24G30 30.03F FOG NANTUCKET FOG 46 46 100 SW16 30.09F VSB 1/2 PROVIDENCE CLOUDY 38 37 97 SW6 30.11F HARTFORD FAIR 37 36 96 S8 30.11F ALBANY CLOUDY 37 33 85 S12 30.10F NEW YORK CITY MOCLDY 44 40 85 W12 30.16F $$ ANZ081-ANZ082-ANZ150-NHZ014-MEZ023>029-240600- COASTAL MARINE OBSERVATIONS STATION/POSITION TIME TEMP WIND PRES WAVE AIR SEA DIR/SP/G HT/PER (UTC) (F) (DEG/KT/KT) (MB) (FT/S) MOUNT DESERT ROC 0500 40 200/ 23/ 25 1017.0F MATINICUS ROCK 0400 37 230/ 21/ 24 1018.6F ISLE OF SHOALS 0400 36 230/ 16/ 17 1018.7F JEFFREYS LEDGE 0436 41 N/A 4/ 5 GEORGES BANK BUO 0350 35 51 1028.1 7/ 8 $$ .............KEY.............. WCI - WIND CHILL TC - TEMPERATURE IN CELSIUS VSB - VISIBILITY IN MILES HX - HEAT INDEX FAIR- INDICATES FEW OR NO CLOUDS BELOW 12,000 FT, WITH NO SIGNIFICANT WEATHER AND/OR OBSTRUCTIONS TO VISIBILITY.

USA.gov is the U.S. government's official web portal to all federal, state and local government web resources and services.